Wind_Speed
30 34 49 45 41 41 42 30 34 34 27 32 38 43 42 37 34 33 26 22 26 24 20 24 20 24 25 24 25 24 23 26 24 18 14 16 13 15 16 15 20 11 28 44
29 42 38 37 38 39 39 41 44 39 36 32 38 48 42 40 37 33 32 25 21 22 18 24 25 26 28 27 26 24 23 25 23 20 18 17 16 16 18 20 23 25 29 49
34 39 21 36 36 39 41 42 36 35 31 32 32 43 38 35 36 34 35 32 27 23 21 23 24 26 26 32 25 24 22 24 24 23 20 17 17 17 19 24 23 23 29 51
37 41 35 17 32 36 39 36 32 31 27 17 18 19 34 32 33 34 34 37 34 27 24 29 26 28 25 23 27 24 21 24 24 23 19 18 15 16 20 21 19 27 48 51
55 39 26 39 45 24 35 23 26 24 26 29 33 20 14 11 28 31 25 26 40 33 27 28 20 16 22 21 25 23 18 23 23 22 17 15 13 11 16 23 23 35 47 39
49 21 31 26 23 35 32 21 20 22 20 13 26 21 19 17 20 23 30 27 30 40 28 29 22 19 20 24 25 23 16 20 21 19 12 10 7 4 12 27 21 34 44 39
39 43 34 23 17 20 22 17 3 3 6 8 10 19 32 10 25 17 23 18 23 32 35 36 29 26 24 26 27 18 15 17 18 16 11 10 7 3 6 23 25 31 36 37
23 19 40 40 35 24 24 23 10 7 4 3 10 9 12 10 8 15 19 17 13 22 21 26 36 26 27 26 26 16 15 15 14 12 11 12 10 8 7 16 25 29 33 31
8 12 11 13 30 43 38 21 32 26 14 2 12 16 21 22 17 18 11 3 3 10 23 14 33 25 25 26 19 16 14 15 12 10 10 12 10 10 8 12 18 20 25 30
12 7 14 11 6 19 40 34 24 14 10 14 6 10 14 12 14 20 6 10 12 8 19 16 21 26 28 25 17 18 16 15 11 7 7 9 10 9 9 12 19 20 22 20
23 15 10 12 9 14 24 32 22 27 19 9 6 7 14 16 22 15 12 9 13 4 25 25 24 26 29 26 19 18 16 15 11 8 5 7 8 8 8 10 14 15 21 29
5 6 2 15 13 5 13 27 39 19 8 14 11 13 13 8 10 7 10 17 9 14 6 17 23 25 28 25 21 20 16 16 13 11 8 7 6 6 7 7 10 16 18 23
5 5 4 4 13 16 3 8 25 38 22 18 11 5 13 16 17 14 17 16 2 13 14 6 15 27 32 25 21 21 20 19 16 13 11 9 6 5 5 6 6 8 13 15
12 13 8 6 12 3 3 7 10 18 16 6 12 10 16 16 14 18 16 6 14 9 16 13 7 21 26 26 25 23 22 22 20 18 16 12 9 7 7 6 6 6 7 11
10 9 14 9 9 3 10 6 5 5 4 5 3 10 17 13 8 6 10 3 5 18 6 12 11 5 17 28 24 26 24 23 23 21 20 19 17 13 10 10 9 9 10 11
10 9 11 20 8 1 6 1 7 6 3 5 2 3 15 7 11 3 9 2 5 8 2 6 9 15 8 21 28 25 25 23 22 24 26 23 23 22 20 17 14 15 15 16
7 6 9 12 20 13 3 6 4 11 6 8 12 5 9 14 13 10 6 6 8 9 17 14 8 2 6 9 28 25 20 22 23 21 20 20 28 28 26 24 24 22 21 21
8 7 6 7 12 4 10 2 6 2 7 12 17 10 12 9 12 11 8 4 3 3 10 12 13 11 8 11 8 12 22 25 22 22 17 18 20 26 33 30 28 27 27 27
17 14 7 4 2 12 1 9 4 7 10 11 10 13 20 13 13 11 4 5 9 15 12 11 10 16 13 13 14 14 16 17 19 25 28 30 24 23 26 31 32 31 31 31
20 17 16 5 2 3 6 6 3 8 9 9 5 9 7 7 7 5 6 7 9 11 13 17 18 20 23 26 27 28 28 23 23 22 23 32 35 30 26 24 25 29 32 32
8 24 25 20 5 8 8 6 2 9 9 11 6 3 1 2 0 3 8 10 11 11 12 15 18 19 20 22 25 30 31 30 29 28 28 26 29 34 35 35 24 23 25 29
6 9 19 21 12 12 6 7 7 10 9 8 5 0 3 5 7 10 12 12 11 11 12 13 16 18 20 19 19 21 26 29 31 33 35 33 29 28 27 30 36 38 28 26
6 15 9 19 14 9 10 8 8 13 9 6 4 4 5 10 11 13 13 12 10 12 13 12 14 14 17 19 18 17 17 22 29 31 32 33 35 32 27 27 28 33 33 35
32 5 8 16 17 15 10 12 9 11 9 8 8 6 7 12 13 12 12 12 12 12 11 11 12 13 16 18 20 23 24 22 20 26 30 31 30 32 35 35 31 32 28 24
27 6 11 15 6 13 15 11 8 6 11 8 7 7 9 12 11 16 15 15 16 16 16 16 16 15 15 20 23 23 25 24 22 22 26 28 29 29 32 32 34 35 36 34
24 21 10 10 10 13 15 15 11 12 12 10 7 7 12 14 15 15 15 17 18 18 18 17 19 20 21 22 26 26 29 31 22 19 22 25 25 26 26 29 30 32 36 43
Wind_Direction
237 236 234 234 235 243 243 248 253 255 259 261 263 267 268 270 263 258 257 267 250 250 248 262 260 249 267 275 279 289 300 309 310 291 272 262 249 247 254 229 193 241 191 185
233 237 241 245 242 244 246 250 253 260 259 261 268 269 269 266 265 261 261 253 249 252 251 260 261 260 267 274 274 281 295 306 306 292 271 256 248 237 245 236 225 230 185 181
241 243 259 244 241 240 244 246 252 260 269 265 270 272 269 264 266 263 261 254 245 247 248 252 258 262 265 267 268 272 288 302 303 295 276 257 253 253 245 236 239 229 213 184
250 251 239 238 238 238 246 247 254 260 262 260 262 281 277 281 275 266 266 249 247 250 253 254 268 258 257 262 257 265 284 298 300 298 283 257 255 257 255 234 250 210 184 184
245 246 240 237 239 236 247 252 250 257 261 266 264 273 303 277 283 284 286 263 242 247 249 254 259 266 255 248 245 259 281 292 298 298 283 257 259 257 228 217 230 201 190 202
243 238 234 246 251 240 245 248 264 265 260 252 253 243 295 276 281 304 301 274 234 239 243 245 259 263 243 230 236 251 276 285 295 296 266 252 250 224 210 204 218 218 196 198
233 238 227 221 207 214 217 222 248 237 182 237 259 241 242 242 292 298 309 288 252 242 238 241 252 258 226 222 233 245 265 278 288 289 250 247 232 207 187 203 204 202 201 206
218 244 230 224 228 214 215 204 202 211 202 214 198 231 250 277 257 297 289 291 270 241 229 245 241 241 212 218 227 240 250 266 276 277 244 235 222 218 204 193 199 211 209 232
218 232 206 208 236 232 224 222 235 248 276 251 230 246 258 257 264 263 287 341 308 244 217 257 230 212 209 215 218 233 238 251 262 265 245 234 222 224 228 210 200 194 214 222
232 269 222 219 284 230 225 231 227 215 218 239 245 230 233 232 264 289 284 52 35 212 201 208 197 201 202 210 221 218 230 238 247 246 241 238 216 214 221 212 219 219 216 221
226 239 240 255 251 240 217 224 224 231 226 215 228 240 253 265 269 250 235 315 11 17 230 238 213 210 200 202 213 211 226 230 235 238 237 250 231 206 206 210 215 215 219 211
186 196 171 238 242 245 228 235 221 223 213 225 224 239 247 265 241 252 272 258 14 24 258 221 192 210 205 206 204 199 211 220 219 218 219 237 240 221 189 194 206 210 216 217
103 45 16 248 225 242 224 223 221 221 232 216 191 199 236 247 231 244 269 262 300 4 30 250 238 206 209 210 203 199 204 205 210 217 217 220 230 230 212 185 179 203 211 215
34 76 41 324 305 209 153 32 175 201 205 205 223 209 228 242 259 294 301 340 254 271 28 20 272 231 216 211 204 199 203 202 206 211 216 210 213 219 228 228 213 193 198 213
37 61 15 350 320 215 204 15 29 162 208 207 207 242 231 261 247 275 303 328 317 237 45 23 25 310 237 225 214 210 210 210 212 216 218 213 212 206 220 234 236 232 217 211
9 35 7 336 336 8 206 332 313 303 281 227 81 241 190 207 201 224 228 257 306 220 116 38 20 10 329 222 219 219 216 219 219 215 221 224 221 221 218 220 233 237 237 232
3 354 324 296 318 317 195 162 229 217 255 249 243 262 206 191 209 217 214 284 280 301 306 322 300 26 358 326 218 228 231 235 236 232 232 230 231 230 228 227 226 229 234 235
283 293 280 292 316 319 353 219 156 172 216 223 226 216 208 197 184 181 182 182 335 348 315 311 312 324 303 284 294 266 243 243 243 229 235 237 254 249 234 230 230 231 232 236
252 252 263 273 193 278 225 151 75 143 120 151 176 168 190 186 199 183 145 215 261 276 280 276 264 263 273 267 266 265 278 279 243 231 235 245 248 255 247 238 234 235 235 237
242 235 239 234 230 237 186 125 119 180 153 155 166 144 145 168 219 232 280 298 291 287 291 287 283 277 278 284 286 278 273 264 260 251 247 238 234 237 249 250 242 239 239 242
238 223 230 232 236 261 263 242 192 197 187 189 158 115 58 277 290 320 329 322 310 300 286 286 289 287 286 280 280 274 270 270 260 249 250 251 244 246 245 241 244 248 241 240
290 207 219 222 224 251 229 220 213 150 151 141 135 355 323 344 345 332 323 312 301 299 298 291 292 295 299 299 293 274 260 265 266 258 247 248 255 254 247 240 244 240 241 244
309 267 212 210 222 240 219 178 185 178 177 177 200 266 319 335 327 325 321 318 310 310 308 297 304 298 308 307 304 308 298 278 266 263 254 251 249 252 254 250 238 248 258 256
318 228 215 212 230 233 234 246 229 215 183 185 210 259 309 315 320 328 333 332 322 323 316 308 319 301 305 324 319 310 310 303 282 263 258 252 247 247 247 250 254 252 253 261
358 254 198 201 223 212 222 225 207 237 159 203 225 259 293 316 313 332 329 333 338 331 324 311 308 318 311 320 329 333 330 319 297 264 251 251 246 244 240 239 244 244 247 248
334 360 226 244 247 222 210 218 209 183 176 215 241 283 301 308 309 311 314 323 329 326 329 318 314 309 314 318 325 327 330 333 299 275 257 252 246 241 240 240 242 248 248 246
Height
3036 3036 3023 3030 3037 3040 3042 3041 3040 3043 3047 3050 3043 3038 3042 3046 3046 3046 3046 3047 3048 3048 3047 3050 3052 3054 3056 3056 3056 3055 3052 3050 3046 3044 3041 3041 3040 3039 3038 3040 3039 3039 3043 3050
3030 3019 3026 3029 3033 3035 3036 3035 3034 3039 3044 3047 3040 3027 3034 3036 3037 3039 3039 3041 3042 3042 3042 3043 3047 3050 3051 3051 3051 3051 3048 3046 3043 3041 3039 3038 3038 3037 3037 3038 3039 3041 3043 3050
3020 3015 3023 3023 3025 3027 3027 3026 3031 3035 3039 3039 3036 3021 3024 3028 3029 3032 3032 3034 3034 3035 3037 3038 3042 3045 3045 3045 3047 3047 3044 3041 3039 3038 3036 3035 3034 3034 3033 3034 3035 3037 3038 3049
3014 3011 3016 3017 3015 3023 3019 3024 3029 3032 3034 3032 3035 3019 3019 3022 3021 3023 3025 3027 3028 3029 3030 3032 3033 3036 3039 3039 3042 3042 3040 3038 3035 3034 3032 3031 3031 3030 3029 3030 3031 3034 3040 3047
2993 3001 3007 3009 3006 3018 3012 3024 3025 3027 3028 3030 3027 3030 3013 3017 3016 3016 3018 3018 3020 3022 3024 3027 3028 3029 3032 3034 3037 3038 3037 3035 3032 3031 3029 3028 3027 3026 3025 3028 3030 3033 3037 3045
2991 2996 3001 3002 3004 3009 3013 3019 3022 3023 3026 3023 3023 3026 3008 3012 3014 3013 3011 3009 3009 3012 3017 3020 3021 3023 3026 3029 3032 3034 3033 3032 3030 3028 3027 3026 3025 3023 3023 3025 3029 3031 3036 3043
2987 2987 2994 2998 2998 3002 3008 3014 3018 3020 3020 3013 3015 3016 3009 3010 3012 3011 3005 2999 3000 3002 3007 3010 3014 3018 3020 3023 3028 3030 3030 3030 3028 3026 3025 3025 3024 3023 3023 3026 3029 3034 3037 3042
2979 2980 2983 2988 2992 2997 3002 3008 3009 3011 3012 3010 3012 3006 3005 3008 3010 3008 3001 2996 2994 2996 3001 3005 3009 3012 3015 3019 3024 3027 3027 3027 3026 3024 3023 3023 3024 3024 3025 3026 3030 3034 3039 3043
2976 2976 2977 2981 2986 2993 2993 3000 3002 3007 3006 3007 3004 3002 3002 3004 3005 3004 2997 2993 2991 2992 2996 2998 2999 3005 3010 3016 3021 3024 3024 3026 3025 3024 3023 3024 3023 3023 3024 3026 3029 3033 3036 3041
2974 2974 2975 2977 2980 2982 2986 2994 3002 3000 3001 3004 2999 2998 2998 3000 3000 3002 2996 2990 2988 2987 2989 2991 2993 2999 3005 3014 3018 3020 3021 3024 3025 3024 3024 3025 3023 3023 3024 3024 3027 3030 3033 3036
2969 2972 2973 2974 2976 2978 2981 2985 2991 2993 2994 2994 2998 2994 2996 2997 2997 2997 2994 2991 2988 2986 2986 2987 2991 2996 3002 3009 3013 3017 3019 3023 3024 3025 3025 3026 3026 3024 3024 3024 3025 3027 3030 3035
2966 2967 2969 2972 2974 2975 2976 2978 2983 2986 2987 2987 2989 2991 2992 2993 2992 2991 2990 2992 2989 2989 2984 2985 2989 2994 3000 3005 3008 3011 3016 3021 3023 3023 3024 3025 3026 3026 3026 3026 3026 3026 3028 3031
2965 2966 2968 2969 2973 2973 2975 2974 2975 2979 2984 2983 2987 2989 2989 2990 2988 2985 2985 2986 2989 2989 2984 2984 2987 2992 2996 3000 3004 3008 3011 3015 3019 3022 3023 3024 3026 3027 3027 3027 3028 3029 3029 3030
2965 2967 2973 2979 2977 2975 2976 2974 2973 2974 2978 2982 2984 2984 2986 2987 2987 2987 2988 2985 2990 2993 2987 2986 2986 2988 2992 2995 2999 3003 3008 3011 3014 3017 3020 3022 3025 3026 3027 3027 3028 3029 3030 3031
2971 2971 2974 2974 2975 2975 2971 2972 2974 2972 2975 2980 2982 2981 2983 2985 2987 2983 2983 2986 2989 2989 2987 2989 2988 2987 2988 2993 2997 3001 3004 3007 3011 3014 3017 3018 3020 3024 3026 3027 3028 3030 3031 3032
2972 2971 2977 2976 2974 2973 2973 2973 2973 2974 2977 2978 2978 2984 2980 2986 2985 2984 2984 2985 2985 2985 2986 2987 2989 2986 2986 2989 2995 2997 3001 3004 3008 3008 3012 3014 3016 3019 3021 3024 3027 3029 3031 3032
2970 2973 2978 2979 2975 2972 2972 2970 2973 2973 2974 2978 2978 2983 2981 2983 2985 2985 2984 2984 2982 2984 2984 2987 2986 2987 2990 2990 2991 2993 2996 2999 3003 3007 3008 3009 3012 3014 3017 3019 3021 3024 3027 3030
2973 2975 2978 2975 2975 2973 2971 2968 2970 2970 2969 2972 2975 2975 2981 2980 2982 2983 2983 2982 2981 2981 2981 2984 2985 2986 2989 2989 2991 2992 2993 2995 2998 3001 3004 3007 3009 3010 3011 3013 3015 3017 3020 3023
2971 2974 2976 2975 2974 2974 2972 2969 2968 2967 2972 2972 2972 2974 2978 2979 2980 2981 2981 2981 2982 2981 2981 2983 2985 2986 2987 2989 2989 2990 2991 2991 2992 2995 2996 3000 3003 3004 3005 3006 3008 3009 3012 3015
2969 2972 2975 2975 2974 2974 2969 2968 2967 2968 2971 2974 2975 2977 2978 2979 2980 2981 2980 2980 2979 2979 2979 2979 2980 2981 2981 2981 2981 2982 2984 2986 2987 2987 2989 2991 2994 2998 3000 3001 3001 3003 3004 3007
2966 2968 2969 2972 2974 2971 2968 2967 2967 2970 2974 2972 2976 2977 2977 2978 2978 2978 2978 2978 2977 2977 2977 2975 2972 2973 2973 2975 2974 2974 2974 2976 2979 2981 2982 2984 2986 2988 2991 2993 2995 2996 2996 2998
2963 2964 2966 2970 2973 2972 2966 2967 2968 2970 2969 2972 2975 2975 2975 2974 2974 2975 2975 2973 2972 2972 2971 2969 2968 2965 2965 2965 2966 2967 2967 2967 2967 2970 2973 2975 2977 2980 2982 2983 2985 2988 2989 2990
2961 2960 2959 2961 2960 2962 2964 2965 2965 2968 2969 2971 2973 2973 2973 2973 2973 2972 2970 2969 2969 2968 2967 2965 2964 2962 2961 2959 2959 2958 2957 2957 2958 2958 2960 2964 2968 2971 2973 2975 2976 2977 2978 2978
2952 2948 2952 2957 2958 2960 2961 2961 2964 2966 2968 2970 2971 2972 2972 2970 2968 2967 2965 2964 2964 2963 2962 2961 2960 2957 2956 2954 2951 2949 2948 2947 2947 2948 2949 2951 2955 2958 2962 2965 2967 2968 2970 2970
2952 2950 2950 2952 2953 2955 2957 2960 2962 2964 2964 2968 2969 2969 2969 2967 2965 2962 2961 2960 2959 2957 2955 2954 2952 2951 2949 2947 2943 2940 2938 2936 2935 2936 2938 2941 2944 2948 2951 2954 2956 2960 2961 2963
2953 2950 2951 2951 2953 2954 2956 2958 2960 2961 2963 2965 2966 2966 2965 2964 2962 2960 2958 2957 2956 2954 2952 2950 2947 2945 2942 2940 2936 2933 2930 2928 2927 2927 2930 2932 2934 2937 2941 2944 2948 2950 2952 2953